Terug naar catalogus

STARLINK-32025

ActiefCommunicatieVLEO
NORAD 60138·PAYLOAD·🇺🇸 United States

Gelanceerd Jun 27, 2024 vanaf Cape Canaveral Space Force Station

Loading…

Volgende Passages (komende 24 uur)

TLE

VersSource: CelesTrak SupGP

Epoch: Sep 14, 2026, 22:44 UTC

1 60138C 24120D   26257.94770833 -.00065303  00000+0 -19293-2 0  2571
2 60138  53.1567 157.3491 0001351  87.4043 201.8065 15.34423870    13

Volg STARLINK-32025 in realtime met AllMySat

Download on the App Store